Home > Weather > Dryden > Past weeks

Flag for Canada Past Weather in Dryden, Ontario, Canada — Yesterday and Last 2 Weeks

Now
63 °F

Partly sunny.


Feels Like: 63 °F
Forecast: 53 / 73 °F
Wind: 2 mph from North

Location: Dryden Airport

Current Time: May 27, 2016 at 11:14:32 AM

Latest Report: May 27, 2016 at 10:02 AM


Visibility: 9 mi

Pressure: 29.86 "Hg

Humidity: 73%

Dew Point: 54 °F

Location of DrydenLocation

Past Weather in Dryden — Graph

°F

Dryden Temperature Yesterday

Maximum temperature yesterday: 66 °F (at 4:00 PM)
Minimum temperature yesterday: 54 °F (at 1:52 AM)
Average temperature yesterday: 58 °F

High & Low Weather Summary for the Past Weeks

 TemperatureHumidityPressure
High82 °F (May 22, 4:00 PM)100% (May 13, 9:00 AM)30.39 "Hg (May 13, 9:00 AM)
Low25 °F (May 14, 3:00 AM)19% (May 19, 3:00 PM)29.57 "Hg (May 23, 9:00 AM)
Average53 °F66%29.99 "Hg
* Reported May 12 10:00 AM — May 27 10:00 AM, Dryden, Weather by CustomWeather, © 2016

Note: Actual official high and low records may vary slightly from our data, if they occured in-between our weather recording intervals... More about our weather records

Advertising

Dryden Weather History for the Previous 24 Hours

Scroll right to see more
 ConditionsComfort  
Time TempWeatherWind HumidityBarometerVisibility
10:00 AM
Fri, May 27
63 °FScattered clouds.3 mph73%29.86 "Hg9 mi
9:56 AM64 °FScattered clouds.6 mph73%29.85 "Hg9 mi
9:03 AM61 °FPartly sunny.3 mph83%29.83 "Hg9 mi
8:59 AM61 °FScattered clouds.5 mph83%29.83 "Hg9 mi
8:00 AM59 °FPassing clouds.5 mph82%29.83 "Hg9 mi
7:00 AM57 °FBroken clouds.6 mph88%29.84 "Hg9 mi
6:50 AM57 °FBroken clouds.8 mph88%29.85 "Hg9 mi
6:00 AM54 °FScattered clouds.7 mph100%29.84 "Hg7 mi
5:00 AM55 °FClear.7 mph94%29.82 "Hg9 mi
4:00 AM55 °FClear.7 mph94%29.81 "Hg9 mi
3:00 AM55 °FPassing clouds.7 mph94%29.81 "Hg9 mi
2:00 AM57 °FPassing clouds.6 mph94%29.80 "Hg9 mi
1:00 AM57 °FPassing clouds.8 mph94%29.79 "Hg9 mi
12:00 AM59 °FPassing clouds.7 mph88%29.78 "Hg9 mi
11:00 PM
Thu, May 26
59 °FClear.6 mph88%29.78 "Hg9 mi
10:00 PM61 °FPassing clouds.6 mph88%29.79 "Hg9 mi
9:00 PM63 °FPartly sunny.2 mph83%29.75 "Hg9 mi
8:00 PM64 °FLight rain. Mostly cloudy.6 mph78%29.74 "Hg9 mi
7:00 PM66 °FBroken clouds.5 mph68%29.74 "Hg9 mi
6:00 PM66 °FPassing clouds.10 mph68%29.75 "Hg9 mi
5:00 PM66 °FOvercast.10 mph64%29.75 "Hg9 mi
4:00 PM66 °FScattered clouds.7 mph64%29.77 "Hg9 mi
3:03 PM61 °FMore clouds than sun.7 mph83%29.79 "Hg9 mi
2:48 PM61 °FMostly cloudy.9 mph77%29.78 "Hg9 mi
2:00 PM59 °FMostly cloudy.7 mph82%29.78 "Hg9 mi
1:00 PM57 °FMostly cloudy.7 mph94%29.78 "Hg9 mi
12:00 PM57 °FLow clouds.9 mph94%29.77 "Hg9 mi
11:00 AM55 °FFog.8 mph94%29.78 "Hg5 mi
Weather by CustomWeather, © 2016

See weather overviewHow to use our weather pages